Location: Bratislava
(48.1500°N, 17.1170°E)
Time: 19:32:27
(UTC+02:00)

Amateur Radio Satellites - All Passes

Search period start: 16 August 2017 19:02
Search period end: 17 August 2017 19:02
Location: Bratislava, 48.1500°N, 17.1170°E

Satellite Date Start Highest point End Downlink Frequencies (MHz)
Time Altitude Azimuth
XW-2F 16 Aug 19:03:08 19:06:03 21° 267° (W) 19:09:00 145.980 - 146.000
ZACube-1 16 Aug 19:11:32 19:14:20 18° 62° (ENE) 19:17:07 437.345
AAUSAT CUBESAT 2 16 Aug 19:22:12 19:26:00 35° 68° (ENE) 19:29:49 437.432
XW-2A 16 Aug 19:33:56 19:37:15 89° 96° (E) 19:40:37 145.665 - 145.685
CUTE-I 16 Aug 19:35:04 19:39:02 21° 269° (W) 19:43:02 437.470
AO-73 16 Aug 19:35:09 19:38:37 26° 66° (ENE) 19:42:04 145.935
O/OREOS (USA 219) 16 Aug 19:35:38 19:39:49 36° 55° (NE) 19:44:02 437.305
KAITUO 1B 16 Aug 19:39:20 19:40:33 11° 272° (W) 19:41:45 145.475/437.950
YUBILEINY 16 Aug 19:41:28 19:46:31 16° 310° (NW) 19:51:36 435.215
KKS-1 16 Aug 19:41:41 19:43:56 14° 303° (WNW) 19:46:11 437.445
CUBEBUG 2 16 Aug 19:50:39 19:54:58 69° 258° (WSW) 19:59:12 437.445
UWE-3 16 Aug 19:54:24 19:58:39 79° 74° (ENE) 20:02:50 435.000/436.395/437.385
SEEDS 16 Aug 19:56:00 20:00:05 50° 261° (W) 20:04:14 437.485
Oscar 11 16 Aug 20:25:29 20:29:44 64° 73° (ENE) 20:34:02 .
HO-68 16 Aug 20:28:30 20:34:36 30° 267° (W) 20:40:45 435.675
RS-15 16 Aug 20:31:09 20:43:26 77° 48° (NE) 20:55:02 29.354- 29.394
Max Valier Satellite 16 Aug 20:34:40 20:36:51 15° 63° (ENE) 20:39:01 145.860
CUTE 1.7 + AOD 2 16 Aug 20:35:56 20:38:16 14° 272° (W) 20:40:37 437.475
STRAND 1 16 Aug 20:38:33 20:43:41 89° 278° (W) 20:48:47 437.568
ZACube-1 16 Aug 20:46:10 20:50:15 53° 260° (W) 20:54:20 437.345
AAUSAT CUBESAT 2 16 Aug 20:58:06 21:01:32 24° 267° (W) 21:04:59 437.432
AO-73 16 Aug 21:11:00 21:14:45 33° 264° (W) 21:18:31 145.935
DELFI C3 16 Aug 21:14:59 21:18:52 54° 73° (ENE) 21:22:49 145.870
O/OREOS (USA 219) 16 Aug 21:15:12 21:19:09 30° 255° (WSW) 21:23:06 437.305
UWE-3 16 Aug 21:34:21 21:35:39 11° 273° (W) 21:36:57 435.000/436.395/437.385
EO-88 16 Aug 21:38:28 21:42:02 59° 73° (ENE) 21:45:38 145.990 - 145.960
TIGRISAT 16 Aug 21:40:51 21:42:40 12° 88° (E) 21:44:29 435.000
FO-29 16 Aug 21:45:11 21:50:34 35° 94° (E) 21:55:28 435.910
LO-87 16 Aug 21:53:41 21:55:37 14° 62° (ENE) 21:57:32 145.935 - 145.965
Oscar 11 16 Aug 22:03:56 22:06:19 15° 271° (W) 22:08:44 .
Max Valier Satellite 16 Aug 22:06:47 22:10:19 48° 261° (W) 22:13:54 145.860
ESTCUBE 1 16 Aug 22:16:05 22:19:28 21° 62° (ENE) 22:22:52 437.505/2401.250
STRAND 1 16 Aug 22:19:12 22:22:09 16° 305° (NW) 22:25:05 437.568
UNISAT 6 16 Aug 22:39:01 22:43:12 51° 100° (E) 22:47:25 437.425
PRISM 16 Aug 22:42:27 22:46:22 38° 98° (E) 22:50:13 437.425
RS-15 16 Aug 22:44:26 22:54:55 38° 254° (WSW) 23:04:59 29.354- 29.394
VELOX 1 16 Aug 22:47:38 22:48:56 11° 55° (NE) 22:50:13 145.980
DELFI C3 16 Aug 22:51:37 22:53:59 15° 270° (W) 22:56:22 145.870
PCSat 16 Aug 22:57:33 23:00:57 17° 105° (ESE) 23:04:21 145.827
EO-88 16 Aug 23:14:47 23:16:05 12° 271° (W) 23:17:23 145.990 - 145.960
TIGRISAT 16 Aug 23:15:37 23:19:52 74° 286° (WNW) 23:24:10 435.000
LO-87 16 Aug 23:25:07 23:28:39 52° 260° (W) 23:32:11 145.935 - 145.965
FO-29 16 Aug 23:30:15 23:35:45 39° 297° (WNW) 23:40:44 435.910
SPROUT 16 Aug 23:31:12 23:34:54 29° 66° (ENE) 23:38:37 437.525
ESTCUBE 1 16 Aug 23:51:33 23:55:57 51° 261° (W) 00:00:22 437.505/2401.250
AIST 2D 17 Aug 00:02:52 00:06:21 53° 100° (E) 00:09:50 435.315
M-CUBED/EXP-1 PRIME 17 Aug 00:09:01 00:13:21 42° 103° (ESE) 00:17:24 437.505
POLYITAN 1 17 Aug 00:16:05 00:19:51 31° 96° (E) 00:23:36 437.675
NANOSAT C BR1 17 Aug 00:16:20 00:19:59 28° 95° (E) 00:23:37 145.865
UNISAT 6 17 Aug 00:16:32 00:19:35 19° 298° (WNW) 00:22:39 437.425
PRISM 17 Aug 00:18:08 00:21:26 23° 296° (WNW) 00:24:44 437.425
VELOX 1 17 Aug 00:20:08 00:24:35 75° 74° (ENE) 00:29:04 145.980
UKube-1 17 Aug 00:28:11 00:31:29 22° 62° (ENE) 00:34:48 .
QB50P2 17 Aug 00:30:41 00:34:46 48° 99° (E) 00:38:51 145.880/145.840
EO-79 17 Aug 00:33:14 00:37:18 47° 99° (E) 00:41:21 145.935-145.965
PCSat 17 Aug 00:38:12 00:43:38 85° 307° (NW) 00:49:07 145.827
DX 1 17 Aug 00:38:27 00:42:30 38° 68° (ENE) 00:46:34 434.975-435.025
SO-50 17 Aug 00:45:31 00:49:55 55° 123° (ESE) 00:54:20 436.795
50 SAT 17 Aug 01:02:33 01:05:58 88° 65° (ENE) 01:09:25 437.505
SPROUT 17 Aug 01:06:56 01:10:45 31° 264° (W) 01:14:34 437.525
DUCHIFAT 1 17 Aug 01:09:22 01:13:34 90° 126° (SE) 01:17:45 145.980
BUGSAT 1 17 Aug 01:29:41 01:33:32 42° 99° (E) 01:37:20 437.445
AIST 2D 17 Aug 01:37:22 01:39:08 13° 298° (WNW) 01:40:55 435.315
M-CUBED/EXP-1 PRIME 17 Aug 01:43:42 01:47:31 27° 303° (WNW) 01:51:10 437.505
Oscar 19 17 Aug 01:43:55 01:48:28 30° 95° (E) 01:53:00 437.125/150
YUBILEINY 17 Aug 01:48:26 01:54:49 22° 56° (NE) 02:01:08 435.215
POLYITAN 1 17 Aug 01:51:58 01:55:35 28° 294° (WNW) 01:59:11 437.675
NANOSAT C BR1 17 Aug 01:52:00 01:55:42 31° 293° (WNW) 01:59:22 145.865
VELOX 1 17 Aug 01:59:24 02:01:34 13° 272° (W) 02:03:45 145.980
UKube-1 17 Aug 02:03:04 02:07:14 46° 260° (W) 02:11:26 .
QB50P2 17 Aug 02:07:12 02:10:15 20° 298° (WNW) 02:13:18 145.880/145.840
EO-79 17 Aug 02:09:41 02:12:46 20° 297° (WNW) 02:15:51 145.935-145.965
DX 1 17 Aug 02:15:08 02:18:47 25° 266° (W) 02:22:27 434.975-435.025
BEESAT 17 Aug 02:15:15 02:19:28 32° 65° (ENE) 02:23:40 436.000
Gurwin Techsat 1B 17 Aug 02:17:31 02:22:30 39° 97° (E) 02:27:26 435.225
PCSat 17 Aug 02:23:39 02:27:50 22° 326° (NW) 02:32:03 145.827
SO-50 17 Aug 02:26:44 02:30:39 28° 323° (NW) 02:34:34 436.795
MOZHAYETS 4 17 Aug 02:42:08 02:46:25 43° 69° (ENE) 02:50:45
ITUPSAT 1 17 Aug 02:45:41 02:50:20 58° 71° (ENE) 02:55:01 437.325
DUCHIFAT 1 17 Aug 02:47:05 02:48:35 12° 303° (WNW) 02:50:05 145.980
CUBESAT XI-V 17 Aug 02:51:06 02:53:35 14° 57° (ENE) 02:56:05 437.345
BUGSAT 1 17 Aug 03:05:40 03:08:38 20° 297° (WNW) 03:11:35 437.445
NO-84 17 Aug 03:14:29 03:16:58 27° 138° (SE) 03:19:28 435.350 FM
Oscar 19 17 Aug 03:23:01 03:27:56 43° 293° (WNW) 03:32:49 437.125/150
AO-7 17 Aug 03:23:37 03:30:32 28° 93° (E) 03:37:22 .
KKS-1 17 Aug 03:30:16 03:33:06 17° 59° (ENE) 03:35:55 437.445
YUBILEINY 17 Aug 03:44:23 03:53:10 82° 80° (E) 04:01:52 435.215
BEESAT 17 Aug 03:52:52 03:57:11 34° 263° (W) 04:01:33 436.000
Gurwin Techsat 1B 17 Aug 03:57:37 04:02:23 34° 296° (WNW) 04:07:08 435.225
SO-50 17 Aug 04:11:07 04:12:36 11° 347° (NNW) 04:14:04 436.795
PCSat 17 Aug 04:12:18 04:13:25 11° 352° (N) 04:14:31 145.827
MOZHAYETS 4 17 Aug 04:20:07 04:23:46 23° 267° (W) 04:27:26
STARS 17 Aug 04:21:47 04:25:11 22° 62° (ENE) 04:28:35 437.465
ITUPSAT 1 17 Aug 04:25:11 04:28:33 19° 269° (W) 04:31:55 437.325
CUBESAT XI-V 17 Aug 04:25:38 04:30:17 86° 256° (WSW) 04:35:01 437.345
ITAMSAT 1 17 Aug 04:31:42 04:36:54 70° 103° (ESE) 04:42:03 435.822/435.867
NO-84 17 Aug 04:51:32 04:54:15 40° 337° (NNW) 04:57:02 435.350 FM
KKS-1 17 Aug 05:04:41 05:09:09 69° 258° (WSW) 05:13:38 437.445
AO-7 17 Aug 05:15:44 05:24:05 77° 293° (WNW) 05:32:22 .
YUBILEINY 17 Aug 05:42:22 05:48:56 25° 282° (WNW) 05:55:30 435.215
XW-2D 17 Aug 05:47:08 05:47:48 10° 88° (E) 05:48:28 145.860 - 145.880
SO-50 17 Aug 05:53:44 05:55:07 11° 12° (NNE) 05:56:31 436.795
PCSat 17 Aug 05:56:53 05:59:24 13° 19° (NNE) 06:01:56 145.827
XW-2B 17 Aug 05:56:56 05:58:49 13° 89° (E) 06:00:41 145.730 - 145.750
STARS 17 Aug 05:56:59 06:01:15 46° 260° (W) 06:05:31 437.465
DOVE 4 17 Aug 06:01:54 06:06:30 46° 98° (E) 06:10:48 437.250
BEESAT 3 17 Aug 06:02:55 06:06:03 22° 115° (ESE) 06:09:12 437.485
CUBESAT XI-V 17 Aug 06:07:09 06:08:24 11° 275° (W) 06:09:39 437.345
CUTE-I 17 Aug 06:07:32 06:11:13 19° 90° (E) 06:14:53 437.470
NUDT-PHONESAT 17 Aug 06:11:11 06:13:11 14° 90° (E) 06:15:11 437.300
ITAMSAT 1 17 Aug 06:12:09 06:15:51 20° 302° (WNW) 06:19:32 435.822/435.867
XW-2C 17 Aug 06:14:53 06:17:50 21° 93° (E) 06:20:46 145.795 - 145.815
AO-85 17 Aug 06:17:06 06:19:59 20° 115° (ESE) 06:22:53 145.980
STRAND 1 17 Aug 06:19:52 06:24:13 29° 63° (ENE) 06:28:34 437.568
NO-84 17 Aug 06:29:53 06:32:11 21° 359° (N) 06:34:34 435.350 FM
XW-2F 17 Aug 06:30:42 06:34:04 29° 95° (E) 06:37:26 145.980 - 146.000
KAITUO 1B 17 Aug 07:03:43 07:07:28 55° 100° (E) 07:11:12 145.475/437.950
LilacSat-2 17 Aug 07:08:26 07:12:19 87° 106° (ESE) 07:16:11 437.200
AO-7 17 Aug 07:09:32 07:15:38 23° 316° (NW) 07:21:43 .
XW-2D 17 Aug 07:18:37 07:22:27 74° 287° (WNW) 07:26:18 145.860 - 145.880
XW-2B 17 Aug 07:29:35 07:33:21 58° 287° (WNW) 07:37:08 145.730 - 145.750
SO-50 17 Aug 07:33:13 07:37:06 27° 36° (NE) 07:41:00 436.795
SEEDS 17 Aug 07:36:30 07:39:46 21° 92° (E) 07:43:02 437.485
CUBEBUG 2 17 Aug 07:38:19 07:41:12 18° 91° (E) 07:44:07 437.445
BEESAT 3 17 Aug 07:39:26 07:43:21 48° 314° (NW) 07:47:18 437.485
PCSat 17 Aug 07:39:29 07:44:29 35° 43° (NE) 07:49:26 145.827
DOVE 4 17 Aug 07:40:07 07:43:54 24° 298° (WNW) 07:47:29 437.250
UWE-3 17 Aug 07:41:57 07:43:33 12° 88° (E) 07:45:08 435.000/436.395/437.385
BEESAT 2 17 Aug 07:42:09 07:46:08 72° 126° (SE) 07:50:13 435.950
NUDT-PHONESAT 17 Aug 07:43:44 07:47:22 52° 288° (WNW) 07:51:01 437.300
CUTE-I 17 Aug 07:46:29 07:51:48 69° 288° (WNW) 07:57:04 437.470
XW-2C 17 Aug 07:48:37 07:52:08 35° 290° (WNW) 07:55:39 145.795 - 145.815
HO-68 17 Aug 07:50:34 07:57:28 47° 99° (E) 08:04:19 435.675
AO-85 17 Aug 07:56:16 08:00:04 48° 314° (NW) 08:03:55 145.980
STRAND 1 17 Aug 07:58:20 08:03:13 44° 261° (W) 08:08:07 437.568
FO-29 17 Aug 07:59:49 08:06:15 32° 61° (ENE) 08:12:13 435.910
XW-2F 17 Aug 08:04:56 08:08:07 26° 293° (WNW) 08:11:19 145.980 - 146.000
NO-84 17 Aug 08:07:25 08:10:10 33° 20° (NNE) 08:13:06 435.350 FM
CUTE 1.7 + AOD 2 17 Aug 08:14:34 08:18:53 79° 102° (ESE) 08:23:11 437.475
XW-2A 17 Aug 08:24:36 08:27:55 54° 100° (E) 08:31:15 145.665 - 145.685
ZACube-1 17 Aug 08:30:52 08:34:10 22° 93° (E) 08:37:30 437.345
AAUSAT CUBESAT 2 17 Aug 08:35:35 08:39:33 39° 97° (E) 08:43:28 437.432
KAITUO 1B 17 Aug 08:38:52 08:41:04 15° 298° (WNW) 08:43:15 145.475/437.950
TIGRISAT 17 Aug 08:42:32 08:45:30 18° 62° (ENE) 08:48:27 435.000
LilacSat-2 17 Aug 08:45:06 08:45:58 11° 301° (WNW) 08:46:49 437.200
AO-73 17 Aug 08:54:32 08:58:22 33° 96° (E) 09:02:17 145.935
SEEDS 17 Aug 09:11:36 09:15:39 42° 290° (WNW) 09:19:40 437.485
SO-50 17 Aug 09:13:24 09:17:54 60° 236° (WSW) 09:22:25 436.795
CUBEBUG 2 17 Aug 09:14:05 09:18:06 48° 289° (WNW) 09:22:09 437.445
UWE-3 17 Aug 09:16:19 09:20:31 76° 285° (WNW) 09:24:46 435.000/436.395/437.385
BEESAT 3 17 Aug 09:19:59 09:21:53 13° 335° (NNW) 09:23:46 437.485
BEESAT 2 17 Aug 09:21:13 09:24:20 21° 326° (NW) 09:27:28 435.950
PCSat 17 Aug 09:22:51 09:28:04 49° 244° (WSW) 09:33:15 145.827
M-CUBED/EXP-1 PRIME 17 Aug 09:25:12 09:27:50 15° 51° (NE) 09:30:30 437.505
CUTE-I 17 Aug 09:28:33 09:30:54 13° 308° (NW) 09:33:16 437.470
Max Valier Satellite 17 Aug 09:34:36 09:36:02 12° 89° (E) 09:37:28 145.860
PRISM 17 Aug 09:34:40 09:38:38 44° 70° (ENE) 09:42:37 437.425
HO-68 17 Aug 09:38:31 09:45:08 42° 299° (WNW) 09:51:43 435.675
AO-85 17 Aug 09:39:44 09:41:25 12° 336° (NNW) 09:43:08 145.980
UNISAT 6 17 Aug 09:40:59 09:45:19 69° 74° (ENE) 09:49:37 437.425
FO-29 17 Aug 09:43:14 09:50:54 67° 258° (WSW) 09:57:55 435.910
NO-84 17 Aug 09:44:39 09:47:40 49° 218° (SW) 09:50:54 435.350 FM
Oscar 11 17 Aug 09:44:52 09:49:16 82° 105° (ESE) 09:53:37 .
CUTE 1.7 + AOD 2 17 Aug 09:51:57 09:54:08 14° 301° (WNW) 09:56:18 437.475
O/OREOS (USA 219) 17 Aug 09:52:42 09:55:53 19° 101° (ESE) 09:59:04 437.305
XW-2A 17 Aug 09:58:51 10:00:15 12° 298° (WNW) 10:01:38 145.665 - 145.685
ZACube-1 17 Aug 10:06:39 10:10:37 41° 290° (WNW) 10:14:38 437.345
AAUSAT CUBESAT 2 17 Aug 10:11:28 10:14:47 23° 296° (WNW) 10:18:05 437.432
TIGRISAT 17 Aug 10:17:33 10:21:50 55° 260° (W) 10:26:04 435.000
DELFI C3 17 Aug 10:22:51 10:26:47 54° 100° (E) 10:30:41 145.870
AO-73 17 Aug 10:30:57 10:34:32 27° 294° (WNW) 10:38:08 145.935
DUCHIFAT 1 17 Aug 10:31:16 10:33:13 13° 58° (ENE) 10:35:11 145.980
EO-88 17 Aug 10:37:03 10:40:37 46° 99° (E) 10:44:10 145.990 - 145.960
AIST 2D 17 Aug 10:40:29 10:43:37 32° 70° (ENE) 10:46:48 435.315
M-CUBED/EXP-1 PRIME 17 Aug 10:57:04 11:01:31 89° 83° (E) 11:06:13 437.505
RS-15 17 Aug 10:59:42 11:09:54 33° 104° (ESE) 11:20:09 29.354- 29.394
Max Valier Satellite 17 Aug 11:06:36 11:10:15 59° 286° (WNW) 11:13:54 145.860
PRISM 17 Aug 11:11:03 11:14:07 20° 268° (W) 11:17:12 437.425
NANOSAT C BR1 17 Aug 11:11:32 11:15:18 34° 68° (ENE) 11:19:06 145.865
POLYITAN 1 17 Aug 11:11:46 11:15:38 37° 69° (ENE) 11:19:31 437.675
ISS 17 Aug 11:18:16 11:19:19 11° 134° (SE) 11:20:21 437.550
UNISAT 6 17 Aug 11:20:18 11:22:30 14° 271° (W) 11:24:42 437.425
Tancredo 1 17 Aug 11:22:27 11:25:05 31° 146° (SE) 11:27:44 437.200
Oscar 11 17 Aug 11:22:39 11:24:47 14° 302° (WNW) 11:26:55 .
QB50P2 17 Aug 11:26:17 11:30:25 57° 72° (ENE) 11:34:34 145.880/145.840
EO-79 17 Aug 11:28:39 11:32:46 55° 72° (ENE) 11:36:54 145.935-145.965
HO-68 17 Aug 11:29:08 11:31:02 11° 322° (NW) 11:32:55 435.675
Oscar 19 17 Aug 11:29:22 11:30:50 11° 51° (NE) 11:32:18 437.125/150
O/OREOS (USA 219) 17 Aug 11:30:31 11:34:54 53° 301° (WNW) 11:39:18 437.305
nSIGHT-1 17 Aug 11:31:18 11:33:16 15° 137° (SE) 11:35:15 .
FO-29 17 Aug 11:33:19 11:37:00 14° 276° (W) 11:40:34 435.910
ESTCUBE 1 17 Aug 11:40:30 11:44:20 26° 94° (E) 11:48:07 437.505/2401.250
DELFI C3 17 Aug 11:58:37 12:01:10 16° 298° (WNW) 12:03:41 145.870
DUCHIFAT 1 17 Aug 12:04:08 12:08:19 79° 258° (WSW) 12:12:31 145.980
Gurwin Techsat 1B 17 Aug 12:05:09 12:08:13 16° 55° (NE) 12:11:19 435.225
VELOX 1 17 Aug 12:08:59 12:10:07 11° 87° (E) 12:11:15 145.980
EO-88 17 Aug 12:11:40 12:13:57 16° 297° (WNW) 12:16:15 145.990 - 145.960
AIST 2D 17 Aug 12:14:27 12:16:56 18° 268° (W) 12:19:26 435.315
LO-87 17 Aug 12:21:39 12:25:12 71° 285° (WNW) 12:28:43 145.935 - 145.965
BUGSAT 1 17 Aug 12:22:22 12:26:20 48° 71° (ENE) 12:30:16 437.445
M-CUBED/EXP-1 PRIME 17 Aug 12:34:45 12:36:35 12° 268° (W) 12:38:28 437.505
AO-7 17 Aug 12:38:18 12:43:09 17° 37° (NE) 12:48:00 .
BEESAT 3 17 Aug 12:39:04 12:40:44 12° 23° (NNE) 12:42:24 437.485
NANOSAT C BR1 17 Aug 12:47:33 12:51:04 26° 265° (W) 12:54:37 145.865
POLYITAN 1 17 Aug 12:48:08 12:51:32 23° 266° (W) 12:54:57 437.675
SPROUT 17 Aug 12:48:27 12:52:17 32° 96° (E) 12:56:06 437.525
ISS 17 Aug 12:52:00 12:55:13 59° 152° (SSE) 12:58:27 437.550
Tancredo 1 17 Aug 12:57:20 13:00:13 58° 344° (NNW) 13:03:07 437.200
AO-85 17 Aug 13:03:40 13:05:59 14° 27° (NNE) 13:08:21 145.980
QB50P2 17 Aug 13:03:59 13:06:35 16° 270° (W) 13:09:10 145.880/145.840
Oscar 19 17 Aug 13:04:04 13:09:08 61° 71° (ENE) 13:14:14 437.125/150
nSIGHT-1 17 Aug 13:05:57 13:09:13 76° 155° (SSE) 13:12:29 .
EO-79 17 Aug 13:06:13 13:08:53 16° 270° (W) 13:11:33 145.935-145.965
RS-15 17 Aug 13:08:46 13:21:07 86° 308° (NW) 13:33:32 29.354- 29.394
O/OREOS (USA 219) 17 Aug 13:14:43 13:15:24 10° 322° (NW) 13:16:05 437.305
ESTCUBE 1 17 Aug 13:17:00 13:21:14 39° 292° (WNW) 13:25:28 437.505/2401.250
Gurwin Techsat 1B 17 Aug 13:42:04 13:47:23 85° 77° (ENE) 13:52:46 435.225
VELOX 1 17 Aug 13:42:45 13:47:14 89° 275° (W) 13:51:38 145.980
UKube-1 17 Aug 13:46:44 13:50:05 22° 93° (E) 13:53:26 .
50 SAT 17 Aug 13:53:13 13:56:33 49° 100° (E) 13:59:50 437.505
DX 1 17 Aug 13:58:43 14:02:52 41° 99° (E) 14:06:59 434.975-435.025
BUGSAT 1 17 Aug 13:59:09 14:01:57 18° 268° (W) 14:04:44 437.445
ITAMSAT 1 17 Aug 14:15:13 14:19:24 25° 60° (ENE) 14:23:36 435.822/435.867
BEESAT 3 17 Aug 14:15:26 14:19:19 44° 45° (NE) 14:23:08 437.485
BEESAT 2 17 Aug 14:19:15 14:22:35 23° 36° (NE) 14:25:52 435.950
SPROUT 17 Aug 14:24:29 14:28:06 28° 294° (WNW) 14:31:43 437.525
AO-7 17 Aug 14:26:06 14:34:08 54° 61° (ENE) 14:42:12 .
ISS 17 Aug 14:28:35 14:31:47 48° 351° (N) 14:34:59 437.550
Tancredo 1 17 Aug 14:32:58 14:35:45 39° 3° (N) 14:38:33 437.200
nSIGHT-1 17 Aug 14:42:37 14:45:46 44° 354° (N) 14:48:55 .
AO-85 17 Aug 14:43:03 14:47:12 57° 48° (NE) 14:51:38 145.980
ITUPSAT 1 17 Aug 14:44:53 14:46:11 11° 86° (E) 14:47:30 437.325
Oscar 19 17 Aug 14:45:05 14:48:52 20° 269° (W) 14:52:41 437.125/150
YUBILEINY 17 Aug 14:56:42 15:02:27 20° 75° (ENE) 15:08:10 435.215
VELOX 1 17 Aug 15:21:01 15:22:59 13° 304° (WNW) 15:24:56 145.980
UKube-1 17 Aug 15:22:12 15:26:18 43° 291° (WNW) 15:30:23 .
RS-15 17 Aug 15:23:53 15:35:29 43° 337° (NNW) 15:46:56 29.354- 29.394
Gurwin Techsat 1B 17 Aug 15:25:04 15:28:03 15° 272° (W) 15:31:02 435.225
50 SAT 17 Aug 15:27:10 15:28:51 13° 298° (WNW) 15:30:30 437.505
DX 1 17 Aug 15:35:19 15:38:50 24° 297° (WNW) 15:42:19 434.975-435.025
DOVE 4 17 Aug 15:35:38 15:37:58 13° 55° (NE) 15:40:17 437.250
BEESAT 17 Aug 15:48:38 15:53:12 44° 99° (E) 15:57:45 436.000
BEESAT 3 17 Aug 15:53:27 15:56:41 24° 244° (WSW) 15:59:51 437.485
ITAMSAT 1 17 Aug 15:53:27 15:58:33 54° 259° (W) 16:03:40 435.822/435.867
BEESAT 2 17 Aug 15:56:39 16:00:40 59° 237° (WSW) 16:04:37 435.950
ISS 17 Aug 16:05:23 16:08:36 50° 11° (N) 16:11:48 437.550
Tancredo 1 17 Aug 16:08:16 16:11:11 88° 206° (SSW) 16:14:06 437.200
MOZHAYETS 4 17 Aug 16:10:02 16:14:37 62° 101° (E) 16:19:11
nSIGHT-1 17 Aug 16:19:16 16:22:29 56° 14° (NNE) 16:25:41 .
AO-7 17 Aug 16:19:16 16:27:06 43° 261° (W) 16:34:59 .
CUBESAT XI-V 17 Aug 16:19:17 16:22:37 19° 90° (E) 16:25:57 437.345
ITUPSAT 1 17 Aug 16:19:57 16:24:46 84° 104° (ESE) 16:29:33 437.325
AO-85 17 Aug 16:24:04 16:27:19 21° 245° (WSW) 16:30:43 145.980
HO-68 17 Aug 16:40:12 16:43:25 14° 42° (NE) 16:46:38 435.675
XW-2B 17 Aug 16:42:30 16:43:53 12° 60° (ENE) 16:45:16 145.730 - 145.750
YUBILEINY 17 Aug 16:49:04 16:57:52 83° 97° (E) 17:06:40 435.215
KKS-1 17 Aug 16:52:52 16:55:51 17° 91° (E) 16:58:48 437.445
NUDT-PHONESAT 17 Aug 16:54:47 16:56:07 12° 60° (ENE) 16:57:27 437.300
XW-2C 17 Aug 16:59:58 17:02:32 18° 64° (ENE) 17:05:07 145.795 - 145.815
DOVE 4 17 Aug 17:09:30 17:14:46 71° 74° (ENE) 17:19:58 437.250
XW-2F 17 Aug 17:15:07 17:18:08 24° 66° (ENE) 17:21:10 145.980 - 146.000
BEESAT 17 Aug 17:26:50 17:30:46 26° 297° (WNW) 17:34:41 436.000
CUTE-I 17 Aug 17:32:21 17:37:23 43° 67° (ENE) 17:42:27 437.470
CUTE 1.7 + AOD 2 17 Aug 17:37:59 17:39:19 11° 57° (ENE) 17:40:39 437.475
RS-15 17 Aug 17:40:42 17:51:55 37° 11° (N) 18:02:45 29.354- 29.394
ISS 17 Aug 17:41:56 17:45:08 52° 210° (SSW) 17:48:19 437.550
STARS 17 Aug 17:42:53 17:46:25 23° 94° (E) 17:49:55 437.465
Tancredo 1 17 Aug 17:44:12 17:46:04 16° 221° (SW) 17:47:57 437.200
KAITUO 1B 17 Aug 17:46:53 17:50:23 41° 71° (ENE) 17:53:55 145.475/437.950
MOZHAYETS 4 17 Aug 17:48:10 17:51:20 19° 300° (WNW) 17:54:30
LilacSat-2 17 Aug 17:53:20 17:57:05 70° 74° (ENE) 18:00:53 437.200
CUBESAT XI-V 17 Aug 17:55:43 18:00:22 58° 289° (WNW) 18:04:58 437.345
nSIGHT-1 17 Aug 17:55:45 17:58:49 39° 213° (SSW) 18:01:51 .
ITUPSAT 1 17 Aug 17:59:13 18:01:57 15° 303° (WNW) 18:04:43 437.325
XW-2D 17 Aug 18:02:50 18:06:35 87° 77° (ENE) 18:10:23 145.860 - 145.880
XW-2B 17 Aug 18:13:46 18:17:31 73° 258° (WSW) 18:21:18 145.730 - 145.750
O/OREOS (USA 219) 17 Aug 18:19:39 18:21:45 13° 41° (NE) 18:23:52 437.305
HO-68 17 Aug 18:22:44 18:29:35 51° 64° (ENE) 18:36:26 435.675
NUDT-PHONESAT 17 Aug 18:25:49 18:29:28 70° 258° (WSW) 18:33:10 437.300
KKS-1 17 Aug 18:28:24 18:32:46 56° 289° (WNW) 18:37:06 437.445
SEEDS 17 Aug 18:31:30 18:34:50 23° 65° (ENE) 18:38:13 437.485
XW-2C 17 Aug 18:32:52 18:36:26 42° 262° (W) 18:40:03 145.795 - 145.815
CUBEBUG 2 17 Aug 18:39:40 18:43:08 24° 65° (ENE) 18:46:31 437.445
UWE-3 17 Aug 18:42:07 18:44:41 16° 61° (ENE) 18:47:15 435.000/436.395/437.385
XW-2F 17 Aug 18:48:49 18:52:08 30° 264° (W) 18:55:30 145.980 - 146.000
DOVE 4 17 Aug 18:49:15 18:52:54 19° 271° (W) 18:56:32 437.250
